Preston, MN

1:54 PM CDT on July 24, 2017 (GMT -0500)
Preston

Weather History for KFKA - March, 2013

Change the Weather History Date:

Thursday, March 7, 2013

  Actual Average (KRST) Record (KRST)
Temperature  
Mean Temperature 16 °F -  
Max Temperature 30 °F 33 °F 75 °F (2000)
Min Temperature 1 °F 14 °F -16 °F (1960)
Degree Days  
Heating Degree Days 50    
Moisture  
Dew Point 13 °F    
Average Humidity 82    
Maximum Humidity 95    
Minimum Humidity 61    
Precipitation  
Precipitation 0.00 in - - ()
Sea Level Pressure  
Sea Level Pressure 30.33 in    
Wind  
Wind Speed 4 mph (SSE)    
Max Wind Speed 10 mph    
Max Gust Speed -    
Visibility 6 miles    
Events Fog    
Averages and records for this station are not official NWS values.
T = Trace of Precipitation, MM = Missing Value Source: NWS Daily Summary

Daily Weather History Graph

Daily Weather History Graph

Search for Another Location

Airport or City:

Trip Planner

Search our weather history database for the weather conditions in past years. The results will help you decide how hot, cold, wet, or windy it might be!

Date:

Astronomy

Mar. 07, 2013 Rise Set
Actual Time 6:34 AM CST 6:05 PM CST
Civil Twilight 6:05 AM CST 6:34 PM CST
Nautical Twilight 5:32 AM CST 7:07 PM CST
Astronomical Twilight 4:59 AM CST 7:40 PM CST
Moon 3:41 AM CST (3/7) 1:47 PM CST (3/7)
Length of Visible Light 12h 28m
Length of Day
11h 30m
Waning Crescent, 20% of the Moon is Illuminated
Mar 7
Waning Crescent
Mar 11
New
Mar 19
First Quarter
Mar 27
Full
Apr 2
Last Quarter

Hourly Weather History & Observations

Time (CST) Temp. Windchill Dew Point Humidity Pressure Visibility Wind Dir Wind Speed Gust Speed Precip Events Conditions
12:14 AM 12.6 °F 4.8 °F 11.1 °F 94% 30.32 in 5.0 mi NNW 4.6 mph - N/A   Clear
12:34 AM 11.7 °F 3.7 °F 10.0 °F 93% 30.32 in 4.0 mi North 4.6 mph - N/A   Clear
12:54 AM 11.3 °F 1.9 °F 9.5 °F 92% 30.33 in 4.0 mi NW 5.8 mph - N/A   Clear
1:14 AM 11.3 °F 3.3 °F 9.5 °F 92% 30.34 in 4.0 mi NW 4.6 mph - N/A   Clear
1:34 AM 12.2 °F 4.3 °F 10.6 °F 93% 30.34 in 4.0 mi NW 4.6 mph - N/A   Clear
1:54 AM 11.1 °F 4.9 °F 9.3 °F 92% 30.34 in 3.0 mi NNW 3.5 mph - N/A   Clear
2:14 AM 11.1 °F - 9.5 °F 93% 30.33 in 3.0 mi Calm Calm - N/A   Clear
2:34 AM 10.2 °F - 8.1 °F 91% 30.31 in 4.0 mi Calm Calm - N/A   Clear
2:54 AM 10.2 °F - 8.1 °F 91% 30.31 in 4.0 mi Calm Calm - N/A   Clear
3:14 AM 12.2 °F - 10.4 °F 92% 30.32 in 2.5 mi Calm Calm - N/A   Clear
3:34 AM 11.3 °F - 8.8 °F 90% 30.32 in 0.8 mi Calm Calm - N/A   Mist
3:54 AM 10.4 °F - 8.4 °F 92% 30.32 in 1.0 mi Calm Calm - N/A   Mist
4:14 AM 12.2 °F - 10.4 °F 92% 30.32 in 1.2 mi Calm Calm - N/A   Mist
4:34 AM 12.0 °F - 10.4 °F 93% 30.32 in 0.8 mi Calm Calm - N/A   Mist
4:54 AM 9.9 °F - 8.1 °F 92% 30.32 in 0.2 mi Calm Calm - N/A Fog Light Freezing Fog
5:14 AM 10.0 °F - 7.7 °F 90% 30.32 in 0.2 mi Calm Calm - N/A Fog Light Freezing Fog
5:34 AM 8.8 °F - 6.6 °F 91% 30.33 in 0.2 mi Calm Calm - N/A Fog Light Freezing Fog
5:54 AM 5.5 °F - 2.5 °F 87% 30.33 in 0.2 mi Calm Calm - N/A Fog Light Freezing Fog
6:14 AM 6.6 °F - 3.9 °F 89% 30.34 in 0.2 mi Calm Calm - N/A Fog Light Freezing Fog
6:34 AM 7.9 °F - 5.9 °F 92% 30.34 in 0.2 mi Calm Calm - N/A Fog Light Freezing Fog
6:54 AM 5.0 °F - 1.9 °F 87% 30.34 in 0.2 mi Calm Calm - N/A Fog Light Freezing Fog
7:14 AM 3.0 °F - -0.2 °F 86% 30.34 in 0.2 mi Calm Calm - N/A Fog Light Freezing Fog
7:34 AM 1.9 °F - -1.3 °F 86% 30.35 in 0.5 mi Calm Calm - N/A Fog Light Freezing Fog
7:55 AM 2.1 °F - -1.3 °F 86% 30.36 in 0.2 mi Calm Calm - N/A Fog Light Freezing Fog
8:14 AM 2.5 °F - -0.8 °F 86% 30.36 in 0.8 mi Calm Calm - N/A   Mostly Cloudy
8:35 AM 5.5 °F - 2.5 °F 87% 30.35 in 0.5 mi Calm Calm - N/A Fog Light Freezing Fog
9:15 AM 7.5 °F - 4.6 °F 88% 30.35 in 3.0 mi Calm Calm - N/A   Clear
9:34 AM 12.0 °F - 9.9 °F 91% 30.35 in 5.0 mi Calm Calm - N/A   Clear
9:55 AM 14.2 °F - 12.4 °F 93% 30.35 in 7.0 mi Calm Calm - N/A   Clear
10:14 AM 15.3 °F - 13.3 °F 92% 30.35 in 7.0 mi Calm Calm - N/A   Clear
10:35 AM 18.3 °F 11.5 °F 16.5 °F 93% 30.35 in 10.0 mi SE 4.6 mph - N/A   Clear
10:54 AM 19.8 °F 13.2 °F 18.1 °F 93% 30.35 in 10.0 mi SSE 4.6 mph - N/A   Clear
11:14 AM 21.2 °F 14.9 °F 19.9 °F 95% 30.35 in 10.0 mi SE 4.6 mph - N/A   Clear
11:34 AM 22.3 °F 17.6 °F 20.5 °F 93% 30.36 in 10.0 mi SSE 3.5 mph - N/A   Clear
11:55 AM 24.8 °F 17.9 °F 18.9 °F 78% 30.36 in 10.0 mi South 5.8 mph - N/A   Clear
12:14 PM 25.5 °F 17.8 °F 17.8 °F 72% 30.35 in 10.0 mi South 6.9 mph - N/A   Clear
12:35 PM 26.8 °F 19.3 °F 17.8 °F 69% 30.35 in 10.0 mi South 6.9 mph - N/A   Clear
12:54 PM 28.4 °F 22.2 °F 18.7 °F 67% 30.35 in 10.0 mi South 5.8 mph - N/A   Clear
1:14 PM 28.9 °F 23.9 °F 18.1 °F 64% 30.34 in 10.0 mi SSE 4.6 mph - N/A   Clear
1:34 PM 29.3 °F 24.3 °F 19.0 °F 66% 30.34 in 10.0 mi South 4.6 mph - N/A   Clear
1:55 PM 29.7 °F 22.8 °F 19.0 °F 65% 30.33 in 10.0 mi SSE 6.9 mph - N/A   Clear
2:14 PM 30.2 °F 21.9 °F 18.9 °F 63% 30.32 in 10.0 mi SSE 9.2 mph - N/A   Clear
2:34 PM 30.9 °F 23.5 °F 18.9 °F 61% 30.31 in 10.0 mi ESE 8.1 mph - N/A   Clear
2:54 PM 30.2 °F 23.4 °F 19.4 °F 64% 30.31 in 10.0 mi SSE 6.9 mph - N/A   Clear
3:15 PM 30.7 °F 24.1 °F 19.2 °F 62% 30.31 in 10.0 mi SSE 6.9 mph - N/A   Clear
3:34 PM 30.7 °F 24.1 °F 19.2 °F 62% 30.31 in 10.0 mi SE 6.9 mph - N/A   Clear
3:54 PM 30.6 °F 23.1 °F 19.0 °F 62% 30.31 in 10.0 mi SE 8.1 mph - N/A   Clear
4:15 PM 30.2 °F 22.6 °F 19.2 °F 64% 30.31 in 10.0 mi SSE 8.1 mph - N/A   Clear
4:34 PM 30.2 °F 21.3 °F 19.4 °F 64% 30.30 in 10.0 mi SE 10.4 mph - N/A   Clear
4:54 PM 29.8 °F 22.2 °F 19.4 °F 65% 30.30 in 10.0 mi SE 8.1 mph - N/A   Clear
5:14 PM 29.3 °F 20.8 °F 18.9 °F 65% 30.30 in 10.0 mi SE 9.2 mph - N/A   Clear
5:34 PM 28.8 °F 21.7 °F 18.5 °F 66% 30.31 in 10.0 mi SE 6.9 mph - N/A   Clear
5:54 PM 27.5 °F 20.2 °F 18.3 °F 68% 30.31 in 10.0 mi SE 6.9 mph - N/A   Clear
7:34 PM 24.8 °F 16.9 °F 18.1 °F 76% 30.30 in 10.0 mi SE 6.9 mph - N/A   Clear
7:54 PM 24.6 °F 15.8 °F 18.3 °F 77% 30.30 in 10.0 mi SE 8.1 mph - N/A   Clear
8:14 PM 23.9 °F 15.0 °F 18.0 °F 78% 30.30 in 10.0 mi SSE 8.1 mph - N/A   Clear
8:34 PM 23.4 °F 13.5 °F 18.0 °F 80% 30.30 in 10.0 mi SSE 9.2 mph - N/A   Clear
8:54 PM 23.0 °F 13.9 °F 18.0 °F 81% 30.30 in 10.0 mi SSE 8.1 mph - N/A   Clear
9:14 PM 23.4 °F 13.5 °F 18.1 °F 80% 30.30 in 10.0 mi SSE 9.2 mph - N/A   Clear
9:34 PM 23.0 °F 13.1 °F 17.8 °F 80% 30.30 in 10.0 mi SSE 9.2 mph - N/A   Clear
9:53 PM 21.7 °F 11.5 °F 17.1 °F 82% 30.31 in 10.0 mi South 9.2 mph - N/A   Clear
10:14 PM 22.1 °F 11.3 °F 17.6 °F 83% 30.30 in 10.0 mi SSE 10.4 mph - N/A   Clear
10:34 PM 21.2 °F 10.9 °F 17.1 °F 84% 30.31 in 10.0 mi SSE 9.2 mph - N/A   Clear
10:54 PM 21.0 °F 10.6 °F 17.2 °F 85% 30.31 in 10.0 mi South 9.2 mph - N/A   Clear
11:14 PM 21.4 °F 10.4 °F 18.3 °F 88% 30.31 in 10.0 mi SSE 10.4 mph - N/A   Clear
11:34 PM 20.8 °F 10.4 °F 17.6 °F 87% 30.32 in 10.0 mi South 9.2 mph - N/A   Clear